10/05/2024 15:00:00,0.336
10/05/2024 15:15:00,0.337
10/05/2024 15:30:00,0.337
10/05/2024 15:45:00,0.336
10/05/2024 16:00:00,0.336
10/05/2024 16:15:00,0.336
10/05/2024 16:30:00,0.336
10/05/2024 16:45:00,0.336
10/05/2024 17:00:00,0.336
10/05/2024 17:15:00,0.336
10/05/2024 17:30:00,0.336
10/05/2024 17:45:00,0.336
10/05/2024 18:00:00,0.336
10/05/2024 18:15:00,0.336
10/05/2024 18:30:00,0.336
10/05/2024 18:45:00,0.336
10/05/2024 19:00:00,0.336
10/05/2024 19:15:00,0.336
10/05/2024 19:30:00,0.335
10/05/2024 19:45:00,0.335
10/05/2024 20:00:00,0.335
10/05/2024 20:15:00,0.335
10/05/2024 20:30:00,0.335
10/05/2024 20:45:00,0.335
10/05/2024 21:00:00,0.335
10/05/2024 21:15:00,0.335
10/05/2024 21:30:00,0.335
10/05/2024 21:45:00,0.335
10/05/2024 22:00:00,0.335
10/05/2024 22:15:00,0.335
10/05/2024 22:30:00,0.336
10/05/2024 22:45:00,0.336
10/05/2024 23:00:00,0.336
10/05/2024 23:15:00,0.336
10/05/2024 23:30:00,0.336
10/05/2024 23:45:00,0.336
11/05/2024 00:00:00,0.336
11/05/2024 00:15:00,0.336
11/05/2024 00:30:00,0.336
11/05/2024 00:45:00,0.336
11/05/2024 01:00:00,0.336
11/05/2024 01:15:00,0.336
11/05/2024 01:30:00,0.336
11/05/2024 01:45:00,0.336
11/05/2024 02:00:00,0.336
11/05/2024 02:15:00,0.336
11/05/2024 02:30:00,0.336
11/05/2024 02:45:00,0.336
11/05/2024 03:00:00,0.336
11/05/2024 03:15:00,0.336
11/05/2024 03:30:00,0.336
11/05/2024 03:45:00,0.336
11/05/2024 04:00:00,0.336
11/05/2024 04:15:00,0.336
11/05/2024 04:30:00,0.336
11/05/2024 04:45:00,0.336
11/05/2024 05:00:00,0.336
11/05/2024 05:15:00,0.335
11/05/2024 05:30:00,0.335
11/05/2024 05:45:00,0.335
11/05/2024 06:00:00,0.335
11/05/2024 06:15:00,0.335
11/05/2024 06:30:00,0.335
11/05/2024 06:45:00,0.335
11/05/2024 07:00:00,0.335
11/05/2024 07:15:00,0.335
11/05/2024 07:30:00,0.335
11/05/2024 07:45:00,0.336
11/05/2024 08:00:00,0.336
11/05/2024 08:15:00,0.336
11/05/2024 08:30:00,0.336
11/05/2024 08:45:00,0.336
11/05/2024 09:00:00,0.336
11/05/2024 09:15:00,0.336
11/05/2024 09:30:00,0.336
11/05/2024 09:45:00,0.336
11/05/2024 10:00:00,0.336
11/05/2024 10:15:00,0.336
11/05/2024 10:30:00,0.336
11/05/2024 10:45:00,0.336
11/05/2024 11:00:00,0.336
11/05/2024 11:15:00,0.336
11/05/2024 11:30:00,0.336
11/05/2024 11:45:00,0.336
11/05/2024 12:00:00,0.336
11/05/2024 12:15:00,0.336
11/05/2024 12:30:00,0.336
11/05/2024 12:45:00,0.336
11/05/2024 13:00:00,0.336
11/05/2024 13:15:00,0.335
11/05/2024 13:30:00,0.336
11/05/2024 13:45:00,0.335
11/05/2024 14:00:00,0.334
11/05/2024 14:15:00,0.334
11/05/2024 14:30:00,0.334
11/05/2024 14:45:00,0.334
11/05/2024 15:00:00,0.334
11/05/2024 15:15:00,0.334
11/05/2024 15:30:00,0.334
11/05/2024 15:45:00,0.334
11/05/2024 16:00:00,0.334
11/05/2024 16:15:00,0.334
11/05/2024 16:30:00,0.334
11/05/2024 16:45:00,0.334
11/05/2024 17:00:00,0.334
11/05/2024 17:15:00,0.335
11/05/2024 17:30:00,0.335
11/05/2024 17:45:00,0.335
11/05/2024 18:00:00,0.335
11/05/2024 18:15:00,0.335
11/05/2024 18:30:00,0.335
11/05/2024 18:45:00,0.335
11/05/2024 19:00:00,0.335
11/05/2024 19:15:00,0.335
11/05/2024 19:30:00,0.335
11/05/2024 19:45:00,0.335
11/05/2024 20:00:00,0.335
11/05/2024 20:15:00,0.335
11/05/2024 20:30:00,0.335
11/05/2024 20:45:00,0.335
11/05/2024 21:00:00,0.335
11/05/2024 21:15:00,0.335
11/05/2024 21:30:00,0.335
11/05/2024 21:45:00,0.335
11/05/2024 22:00:00,0.335
11/05/2024 22:15:00,0.335
11/05/2024 22:30:00,0.335
11/05/2024 22:45:00,0.335
11/05/2024 23:00:00,0.335
11/05/2024 23:15:00,0.335
11/05/2024 23:30:00,0.334
11/05/2024 23:45:00,0.334
12/05/2024 00:00:00,0.334
12/05/2024 00:15:00,0.334
12/05/2024 00:30:00,0.334
12/05/2024 00:45:00,0.334
12/05/2024 01:00:00,0.334
12/05/2024 01:15:00,0.334
12/05/2024 01:30:00,0.334
12/05/2024 01:45:00,0.334
12/05/2024 02:00:00,0.334
12/05/2024 02:15:00,0.335
12/05/2024 02:30:00,0.335
12/05/2024 02:45:00,0.335
12/05/2024 03:00:00,0.335
12/05/2024 03:15:00,0.335
12/05/2024 03:30:00,0.335
12/05/2024 03:45:00,0.335
12/05/2024 04:00:00,0.335
12/05/2024 04:15:00,0.335
12/05/2024 04:30:00,0.335
12/05/2024 04:45:00,0.335
12/05/2024 05:00:00,0.335
12/05/2024 05:15:00,0.335
12/05/2024 05:30:00,0.335
12/05/2024 05:45:00,0.335
12/05/2024 06:00:00,0.335
12/05/2024 06:15:00,0.335
12/05/2024 06:30:00,0.335
12/05/2024 06:45:00,0.335
12/05/2024 07:00:00,0.335
12/05/2024 07:15:00,0.335
12/05/2024 07:30:00,0.335
12/05/2024 07:45:00,0.335
12/05/2024 08:00:00,0.335
12/05/2024 08:15:00,0.335
12/05/2024 08:30:00,0.335
12/05/2024 08:45:00,0.335
12/05/2024 09:00:00,0.334
12/05/2024 09:15:00,0.334
12/05/2024 09:30:00,0.334
12/05/2024 09:45:00,0.334
12/05/2024 10:00:00,0.334
12/05/2024 10:15:00,0.334
12/05/2024 10:30:00,0.334
12/05/2024 10:45:00,0.334
12/05/2024 11:00:00,0.334
12/05/2024 11:15:00,0.334
12/05/2024 11:30:00,0.335
12/05/2024 11:45:00,0.335
12/05/2024 12:00:00,0.335
12/05/2024 12:15:00,0.335
12/05/2024 12:30:00,0.335
12/05/2024 12:45:00,0.335
12/05/2024 13:00:00,0.335
12/05/2024 13:15:00,0.335
12/05/2024 13:30:00,0.335
12/05/2024 13:45:00,0.335
12/05/2024 14:00:00,0.335
12/05/2024 14:15:00,0.335
12/05/2024 14:30:00,0.335
12/05/2024 14:45:00,0.335
12/05/2024 15:00:00,0.335
12/05/2024 15:15:00,0.335
12/05/2024 15:30:00,0.335
12/05/2024 15:45:00,0.335
12/05/2024 16:00:00,0.335
12/05/2024 16:15:00,0.335
12/05/2024 16:30:00,0.335
12/05/2024 16:45:00,0.335
12/05/2024 17:00:00,0.335
12/05/2024 17:15:00,0.335
12/05/2024 17:30:00,0.334
12/05/2024 17:45:00,0.334
12/05/2024 18:00:00,0.335
12/05/2024 18:15:00,0.334
12/05/2024 18:30:00,0.334
12/05/2024 18:45:00,0.334
12/05/2024 19:00:00,0.334
12/05/2024 19:15:00,0.334
12/05/2024 19:30:00,0.333
12/05/2024 19:45:00,0.333
12/05/2024 20:00:00,0.334
12/05/2024 20:15:00,0.334
12/05/2024 20:30:00,0.334
12/05/2024 20:45:00,0.334
12/05/2024 21:00:00,0.334
12/05/2024 21:15:00,0.334
12/05/2024 21:30:00,0.335
12/05/2024 21:45:00,0.338
12/05/2024 22:00:00,0.341
12/05/2024 22:15:00,0.347
12/05/2024 22:30:00,0.35
12/05/2024 22:45:00,0.358
12/05/2024 23:00:00,0.36
12/05/2024 23:15:00,0.366
12/05/2024 23:30:00,0.371
12/05/2024 23:45:00,0.373
13/05/2024 00:00:00,0.378
13/05/2024 00:15:00,0.384
13/05/2024 00:30:00,0.391
13/05/2024 00:45:00,0.398
13/05/2024 01:00:00,0.402
13/05/2024 01:15:00,0.421
13/05/2024 01:30:00,0.426
13/05/2024 01:45:00,0.427
13/05/2024 02:00:00,0.425
13/05/2024 02:15:00,0.424
13/05/2024 02:30:00,0.422
13/05/2024 02:45:00,0.42
13/05/2024 03:00:00,0.418
13/05/2024 03:15:00,0.415
13/05/2024 03:30:00,0.414
13/05/2024 03:45:00,0.41
13/05/2024 04:00:00,0.406
13/05/2024 04:15:00,0.402
13/05/2024 04:30:00,0.4
13/05/2024 04:45:00,0.396
13/05/2024 05:00:00,0.392
13/05/2024 05:15:00,0.389
13/05/2024 05:30:00,0.385
13/05/2024 05:45:00,0.382
13/05/2024 06:00:00,0.38
13/05/2024 06:15:00,0.378
13/05/2024 06:30:00,0.373
13/05/2024 06:45:00,0.371
13/05/2024 07:00:00,0.37
13/05/2024 07:15:00,0.368
13/05/2024 07:30:00,0.364
13/05/2024 07:45:00,0.363
13/05/2024 08:00:00,0.361
13/05/2024 08:15:00,0.36
13/05/2024 08:30:00,0.359
13/05/2024 08:45:00,0.359
13/05/2024 09:00:00,0.355
13/05/2024 09:15:00,0.355
13/05/2024 09:30:00,0.353
13/05/2024 09:45:00,0.351
13/05/2024 10:00:00,0.351
13/05/2024 10:15:00,0.35
13/05/2024 10:30:00,0.349
13/05/2024 10:45:00,0.349
13/05/2024 11:00:00,0.348
13/05/2024 11:15:00,0.348
13/05/2024 11:30:00,0.348
13/05/2024 11:45:00,0.347
13/05/2024 12:00:00,0.347
13/05/2024 12:15:00,0.347
13/05/2024 12:30:00,0.346
13/05/2024 12:45:00,0.346
13/05/2024 13:00:00,0.346
13/05/2024 13:15:00,0.346
13/05/2024 13:30:00,0.345
13/05/2024 13:45:00,0.345
13/05/2024 14:00:00,0.344
13/05/2024 14:15:00,0.344
13/05/2024 14:30:00,0.344
13/05/2024 14:45:00,0.344
13/05/2024 15:00:00,0.342
13/05/2024 15:15:00,0.342
13/05/2024 15:30:00,0.341
13/05/2024 15:45:00,0.341
13/05/2024 16:00:00,0.341
13/05/2024 16:15:00,0.341
13/05/2024 16:30:00,0.341
13/05/2024 16:45:00,0.34
13/05/2024 17:00:00,0.34
13/05/2024 17:15:00,0.34
13/05/2024 17:30:00,0.34
13/05/2024 17:45:00,0.34
13/05/2024 18:00:00,0.34
13/05/2024 18:15:00,0.339
13/05/2024 18:30:00,0.339
13/05/2024 18:45:00,0.34
13/05/2024 19:00:00,0.341
13/05/2024 19:15:00,0.342
13/05/2024 19:30:00,0.344
13/05/2024 19:45:00,0.345
13/05/2024 20:00:00,0.345
13/05/2024 20:15:00,0.346
13/05/2024 20:30:00,0.346
13/05/2024 20:45:00,0.347
13/05/2024 21:00:00,0.348
13/05/2024 21:15:00,0.348
13/05/2024 21:30:00,0.349
13/05/2024 21:45:00,0.349
13/05/2024 22:00:00,0.349
13/05/2024 22:15:00,0.349
13/05/2024 22:30:00,0.349
13/05/2024 22:45:00,0.349
13/05/2024 23:00:00,0.349
13/05/2024 23:15:00,0.349
13/05/2024 23:30:00,0.349
13/05/2024 23:45:00,0.349
14/05/2024 00:00:00,0.349
14/05/2024 00:15:00,0.349
14/05/2024 00:30:00,0.349
14/05/2024 00:45:00,0.349
14/05/2024 01:00:00,0.349
14/05/2024 01:15:00,0.349
14/05/2024 01:30:00,0.348
14/05/2024 01:45:00,0.348
14/05/2024 02:00:00,0.348
14/05/2024 02:15:00,0.347
14/05/2024 02:30:00,0.347
14/05/2024 02:45:00,0.347
14/05/2024 03:00:00,0.347
14/05/2024 03:15:00,0.347
14/05/2024 03:30:00,0.348
14/05/2024 03:45:00,0.347
14/05/2024 04:00:00,0.347
14/05/2024 04:15:00,0.347
14/05/2024 04:30:00,0.346
14/05/2024 04:45:00,0.344
14/05/2024 05:00:00,0.341
14/05/2024 05:15:00,0.341
14/05/2024 05:30:00,0.34
14/05/2024 05:45:00,0.34
14/05/2024 06:00:00,0.34
14/05/2024 06:15:00,0.34
14/05/2024 06:30:00,0.34
14/05/2024 06:45:00,0.339
14/05/2024 07:00:00,0.339
14/05/2024 07:15:00,0.339
14/05/2024 07:30:00,0.339
14/05/2024 07:45:00,0.339
14/05/2024 08:00:00,0.338
14/05/2024 08:15:00,0.338
14/05/2024 08:30:00,0.338
14/05/2024 08:45:00,0.338
14/05/2024 09:00:00,0.338
14/05/2024 09:15:00,0.338
14/05/2024 09:30:00,0.338
14/05/2024 09:45:00,0.338
14/05/2024 10:00:00,0.338
14/05/2024 10:15:00,0.338
14/05/2024 10:30:00,0.338
14/05/2024 10:45:00,0.338
14/05/2024 11:00:00,0.338
14/05/2024 11:15:00,0.337
14/05/2024 11:30:00,0.337
14/05/2024 11:45:00,0.337
14/05/2024 12:00:00,0.337
14/05/2024 12:15:00,0.336
14/05/2024 12:30:00,0.336
14/05/2024 12:45:00,0.336
14/05/2024 13:00:00,0.335
14/05/2024 13:15:00,0.335
14/05/2024 13:30:00,0.335
14/05/2024 13:45:00,0.334
14/05/2024 14:00:00,0.334
14/05/2024 14:15:00,0.334
14/05/2024 14:30:00,0.334
14/05/2024 14:45:00,0.334
14/05/2024 15:00:00,0.333
14/05/2024 15:15:00,0.333
14/05/2024 15:30:00,0.333
14/05/2024 15:45:00,0.333
14/05/2024 16:00:00,0.333
14/05/2024 16:15:00,0.333
14/05/2024 16:30:00,0.334
14/05/2024 16:45:00,0.334
14/05/2024 17:00:00,0.334
14/05/2024 17:15:00,0.333
14/05/2024 17:30:00,0.333
14/05/2024 17:45:00,0.333
14/05/2024 18:00:00,0.334
14/05/2024 18:15:00,0.335
14/05/2024 18:30:00,0.335
14/05/2024 18:45:00,0.336
14/05/2024 19:00:00,0.337
14/05/2024 19:15:00,0.337
14/05/2024 19:30:00,0.337
14/05/2024 19:45:00,0.337
14/05/2024 20:00:00,0.337
14/05/2024 20:15:00,0.337
14/05/2024 20:30:00,0.338
14/05/2024 20:45:00,0.337
14/05/2024 21:00:00,0.337
14/05/2024 21:15:00,0.338
14/05/2024 21:30:00,0.338
14/05/2024 21:45:00,0.338
14/05/2024 22:00:00,0.338
14/05/2024 22:15:00,0.338
14/05/2024 22:30:00,0.338
14/05/2024 22:45:00,0.338
14/05/2024 23:00:00,0.338
14/05/2024 23:15:00,0.338
14/05/2024 23:30:00,0.338
14/05/2024 23:45:00,0.338
15/05/2024 00:00:00,0.338
15/05/2024 00:15:00,0.338
15/05/2024 00:30:00,0.338
15/05/2024 00:45:00,0.338
15/05/2024 01:00:00,0.338
15/05/2024 01:15:00,0.338
15/05/2024 01:30:00,0.338
15/05/2024 01:45:00,0.338
15/05/2024 02:00:00,0.337
15/05/2024 02:15:00,0.337
15/05/2024 02:30:00,0.337
15/05/2024 02:45:00,0.337
15/05/2024 03:00:00,0.337
15/05/2024 03:15:00,0.338
15/05/2024 03:30:00,0.338
15/05/2024 03:45:00,0.338
15/05/2024 04:00:00,0.339
15/05/2024 04:15:00,0.34
15/05/2024 04:30:00,0.341
15/05/2024 04:45:00,0.341
15/05/2024 05:00:00,0.341
15/05/2024 05:15:00,0.341
15/05/2024 05:30:00,0.341
15/05/2024 05:45:00,0.341
15/05/2024 06:00:00,0.341
15/05/2024 06:15:00,0.342
15/05/2024 06:30:00,0.342
15/05/2024 06:45:00,0.341
15/05/2024 07:00:00,0.341
15/05/2024 07:15:00,0.341
15/05/2024 07:30:00,0.341
15/05/2024 07:45:00,0.341
15/05/2024 08:00:00,0.341
15/05/2024 08:15:00,0.341
15/05/2024 08:30:00,0.341
15/05/2024 08:45:00,0.341
15/05/2024 09:00:00,0.34
15/05/2024 09:15:00,0.34
15/05/2024 09:30:00,0.34
15/05/2024 09:45:00,0.34
15/05/2024 10:00:00,0.34
15/05/2024 10:15:00,0.34
15/05/2024 10:30:00,0.34
15/05/2024 10:45:00,0.34
15/05/2024 11:00:00,0.34
15/05/2024 11:15:00,0.341
15/05/2024 11:30:00,0.341
15/05/2024 11:45:00,0.341
15/05/2024 12:00:00,0.341
15/05/2024 12:15:00,0.341
15/05/2024 12:30:00,0.341
15/05/2024 12:45:00,0.341
15/05/2024 13:00:00,0.34
15/05/2024 13:15:00,0.34
15/05/2024 13:30:00,0.34
15/05/2024 13:45:00,0.34
15/05/2024 14:00:00,0.34
15/05/2024 14:15:00,0.34
15/05/2024 14:30:00,0.34
